User: anonymous   Login
Location: Caltech
(34.1382°N, 118.1253°W)
Time: 04:31:29
(UTC-07:00)
Language:

SPOT 1/Viking Rocket - Orbit

View from above orbital plane
View from above orbital plane
View from above satellite
View from above satellite

Ground track
Ground track

The orbit data is extracted from the following two-line orbital elements,

1 16615U 86019C   16208.25916184 -.00000003  00000-0  15761-4 0  9994
2 16615  98.6555 271.3115 0010600 285.9582 114.4127 14.31603444592865
Epoch (UTC): 26 July 2016 06:13:11
Eccentricity: 0.0010600
inclination: 98.6555°
perigee height: 779 km
apogee height: 794 km
right ascension of ascending node: 271.3115°
argument of perigee: 285.9582°
revolutions per day: 14.31603444
mean anomaly at epoch: 114.4127°
orbit number at epoch: 59286

The dashed part of the orbit path shows where the satellite is in the earth's shadow,  

DLR